AZU4825 SBKP-SBRP

Flight info

Callsign AZU4825
Flight time 0h 22m
Altitude 17000
Route GERTU
Aircraft A20N/M-SDE2E3FGHIJ1RWXY/LB1

Departure

Time 2026-05-06 22:34
Airport Viracopos International Airport (SBKP)

Arrival

Time 2026-05-06 22:56
Airport Leite Lopes Airport (SBRP)
Time Latitude Longitude Altitude Speed Heading
2026-05-06 22:26 -23.00594 -47.15132 2179 ft 0 kts 218°
2026-05-06 22:27 -23.00588 -47.15128 2179 ft 2 kts 218°
2026-05-06 22:27 -23.00576 -47.15118 2179 ft 2 kts 218°
2026-05-06 22:28 -23.00564 -47.15108 2179 ft 2 kts 218°
2026-05-06 22:28 -23.00556 -47.15097 2179 ft 2 kts 266°
2026-05-06 22:28 -23.00558 -47.15087 2179 ft 0 kts 305°
2026-05-06 22:28 -23.00563 -47.15080 2179 ft 0 kts 308°
2026-05-06 22:31 -23.00536 -47.15117 2179 ft 16 kts 308°
2026-05-06 22:31 -23.00456 -47.15216 2178 ft 17 kts 344°
2026-05-06 22:31 -23.00349 -47.15145 2178 ft 19 kts 38°
2026-05-06 22:32 -23.00240 -47.15054 2178 ft 19 kts 39°
2026-05-06 22:32 -23.00135 -47.14961 2178 ft 19 kts 37°
2026-05-06 22:32 -23.00029 -47.14870 2178 ft 19 kts 49°
2026-05-06 22:32 -22.99929 -47.14772 2178 ft 19 kts 39°
2026-05-06 22:33 -22.99886 -47.14648 2178 ft 16 kts 109°
2026-05-06 22:33 -22.99900 -47.14623 2178 ft 1 kts 128°
2026-05-06 22:33 -23.00045 -47.14422 2179 ft 75 kts 128°
2026-05-06 22:33 -23.00744 -47.13443 2181 ft 165 kts 127°
2026-05-06 22:34 -23.01252 -47.12739 2358 ft 184 kts 128°
2026-05-06 22:34 -23.01948 -47.11754 3521 ft 155 kts 120°
2026-05-06 22:34 -23.02180 -47.10646 4173 ft 161 kts 83°
2026-05-06 22:34 -23.01965 -47.09408 4736 ft 177 kts 78°
2026-05-06 22:35 -23.01684 -47.08048 5295 ft 196 kts 69°
2026-05-06 22:35 -23.00799 -47.06878 5912 ft 214 kts 26°
2026-05-06 22:35 -22.99351 -47.06705 6869 ft 219 kts 345°
2026-05-06 22:35 -22.98040 -47.07566 7738 ft 229 kts 322°
2026-05-06 22:36 -22.96771 -47.08702 8427 ft 247 kts 323°
2026-05-06 22:36 -22.95381 -47.09935 9120 ft 267 kts 323°
2026-05-06 22:36 -22.93906 -47.11252 9804 ft 285 kts 322°
2026-05-06 22:36 -22.92336 -47.12646 10604 ft 298 kts 322°
2026-05-06 22:37 -22.90687 -47.14112 11260 ft 315 kts 322°
2026-05-06 22:37 -22.88937 -47.15665 11820 ft 334 kts 322°
2026-05-06 22:37 -22.87073 -47.17310 12325 ft 353 kts 322°
2026-05-06 22:37 -22.85098 -47.19051 12755 ft 372 kts 322°
2026-05-06 22:38 -22.82997 -47.20842 13164 ft 389 kts 327°
2026-05-06 22:38 -22.80617 -47.22347 13792 ft 396 kts 336°
2026-05-06 22:38 -22.78046 -47.23439 14539 ft 399 kts 343°
2026-05-06 22:38 -22.75375 -47.24341 15276 ft 403 kts 344°
2026-05-06 22:39 -22.72668 -47.25219 16001 ft 408 kts 344°
2026-05-06 22:39 -22.69930 -47.26107 16690 ft 413 kts 344°
2026-05-06 22:39 -22.67154 -47.27014 17365 ft 418 kts 343°
2026-05-06 22:39 -22.64353 -47.27935 18015 ft 424 kts 343°
2026-05-06 22:40 -22.61488 -47.28880 18666 ft 429 kts 343°
2026-05-06 22:40 -22.58609 -47.29831 19307 ft 434 kts 343°
2026-05-06 22:40 -22.55728 -47.30784 19960 ft 437 kts 342°
2026-05-06 22:40 -22.52791 -47.31757 20571 ft 443 kts 342°
2026-05-06 22:41 -22.46817 -47.33737 21175 ft 448 kts 342°
2026-05-06 22:41 -22.43803 -47.34737 21177 ft 447 kts 342°
2026-05-06 22:41 -22.40827 -47.35724 21178 ft 447 kts 342°
2026-05-06 22:42 -22.37831 -47.36716 21181 ft 447 kts 342°
2026-05-06 22:42 -22.34858 -47.37699 21179 ft 447 kts 342°
2026-05-06 22:42 -22.31841 -47.38696 21178 ft 446 kts 342°
2026-05-06 22:42 -22.28876 -47.39675 21179 ft 445 kts 342°
2026-05-06 22:43 -22.25875 -47.40665 21179 ft 446 kts 342°
2026-05-06 22:43 -22.22909 -47.41645 21178 ft 446 kts 342°
2026-05-06 22:43 -22.19910 -47.42635 21174 ft 446 kts 342°
2026-05-06 22:43 -22.16940 -47.43614 21178 ft 446 kts 342°
2026-05-06 22:44 -22.13958 -47.44597 21178 ft 447 kts 342°
2026-05-06 22:44 -22.10978 -47.45579 21178 ft 447 kts 342°
2026-05-06 22:44 -22.07978 -47.46567 21176 ft 447 kts 342°
2026-05-06 22:44 -22.04987 -47.47552 21132 ft 445 kts 342°
2026-05-06 22:45 -22.02019 -47.48529 20578 ft 442 kts 342°
2026-05-06 22:45 -21.99074 -47.49500 19353 ft 452 kts 343°
2026-05-06 22:45 -21.96020 -47.50507 17894 ft 463 kts 343°
2026-05-06 22:45 -21.92928 -47.51524 17042 ft 457 kts 343°
2026-05-06 22:46 -21.89916 -47.52515 16333 ft 448 kts 343°
2026-05-06 22:46 -21.86902 -47.53505 15610 ft 439 kts 344°
2026-05-06 22:46 -21.84020 -47.54451 14933 ft 431 kts 344°
2026-05-06 22:46 -21.81147 -47.55394 14179 ft 425 kts 344°
2026-05-06 22:47 -21.78340 -47.56315 13317 ft 422 kts 345°
2026-05-06 22:47 -21.75538 -47.57232 12549 ft 416 kts 345°
2026-05-06 22:47 -21.72792 -47.58131 11825 ft 410 kts 345°
2026-05-06 22:47 -21.70063 -47.59023 11085 ft 404 kts 345°
2026-05-06 22:48 -21.67385 -47.59899 10343 ft 398 kts 345°
2026-05-06 22:48 -21.64722 -47.60771 9600 ft 392 kts 345°
2026-05-06 22:48 -21.62154 -47.61610 8860 ft 387 kts 345°
2026-05-06 22:48 -21.59587 -47.62450 8078 ft 383 kts 345°
2026-05-06 22:49 -21.57027 -47.63286 7282 ft 380 kts 345°
2026-05-06 22:49 -21.54505 -47.64111 6496 ft 376 kts 344°
2026-05-06 22:49 -21.52001 -47.64929 5785 ft 370 kts 345°
2026-05-06 22:49 -21.49568 -47.65727 5346 ft 356 kts 345°
2026-05-06 22:50 -21.47251 -47.66486 5189 ft 335 kts 345°
2026-05-06 22:50 -21.45066 -47.67203 5178 ft 312 kts 345°
2026-05-06 22:50 -21.42411 -47.68071 5170 ft 284 kts 345°
2026-05-06 22:50 -21.41171 -47.68475 5172 ft 273 kts 346°
2026-05-06 22:51 -21.39337 -47.69072 5151 ft 267 kts 346°
2026-05-06 22:51 -21.37588 -47.69642 5101 ft 252 kts 346°
2026-05-06 22:51 -21.35959 -47.70168 5052 ft 237 kts 346°
2026-05-06 22:51 -21.34415 -47.70665 5012 ft 223 kts 346°
2026-05-06 22:52 -21.32943 -47.71140 4971 ft 211 kts 347°
2026-05-06 22:52 -21.31531 -47.71594 4932 ft 210 kts 347°
2026-05-06 22:52 -21.30115 -47.72046 4847 ft 211 kts 347°
2026-05-06 22:52 -21.28701 -47.72498 4722 ft 210 kts 347°
2026-05-06 22:53 -21.27307 -47.72945 4581 ft 205 kts 347°
2026-05-06 22:53 -21.25962 -47.73379 4352 ft 194 kts 347°
2026-05-06 22:53 -21.24688 -47.73792 4035 ft 183 kts 347°
2026-05-06 22:53 -21.23494 -47.74177 3757 ft 174 kts 348°
2026-05-06 22:54 -21.22373 -47.74538 3550 ft 159 kts 348°
2026-05-06 22:54 -21.21353 -47.74866 3313 ft 146 kts 348°
2026-05-06 22:54 -21.20412 -47.75169 3104 ft 133 kts 349°
2026-05-06 22:54 -21.19541 -47.75445 2942 ft 130 kts 349°
2026-05-06 22:55 -21.18664 -47.75719 2779 ft 130 kts 349°
2026-05-06 22:55 -21.17796 -47.75990 2619 ft 130 kts 347°
2026-05-06 22:55 -21.16922 -47.76280 2464 ft 131 kts 344°
2026-05-06 22:55 -21.16047 -47.76574 2272 ft 132 kts 346°
2026-05-06 22:56 -21.15155 -47.76848 2068 ft 133 kts 346°
2026-05-06 22:56 -21.14261 -47.77138 1871 ft 133 kts 345°
2026-05-06 22:56 -21.13426 -47.77403 1820 ft 98 kts 343°
2026-05-06 22:56 -21.13064 -47.77522 1817 ft 11 kts 338°
2026-05-06 22:57 -21.13091 -47.77575 1817 ft 11 kts 208°
2026-05-06 22:57 -21.13163 -47.77616 1818 ft 12 kts 208°
2026-05-06 22:57 -21.13244 -47.77638 1818 ft 12 kts 166°
2026-05-06 22:57 -21.13348 -47.77606 1819 ft 18 kts 161°
2026-05-06 22:58 -21.13488 -47.77560 1820 ft 21 kts 163°
2026-05-06 22:58 -21.13629 -47.77513 1822 ft 20 kts 162°
2026-05-06 22:58 -21.13764 -47.77467 1823 ft 19 kts 162°
2026-05-06 22:58 -21.13865 -47.77489 1823 ft 16 kts 251°
2026-05-06 22:59 -21.13886 -47.77593 1823 ft 3 kts 253°
2026-05-06 22:59 -21.13887 -47.77598 1823 ft 0 kts 253°